Time,TemperatureF,DewpointF,PressureIn,WindDirection,WindDirectionDegrees,WindSpeedMPH,WindSpeedGustMPH,Humidity,HourlyPrecipIn,Conditions,Clouds,dailyrainin,SoftwareType,DateUTC
2013-04-23 00:00:00,51.6,26.2,23.36,SW,217,5.4,5.4,37,0.00,,---,0.00,VWS V14.00,2013-04-23 07:00:00,
2013-04-23 00:05:00,51.6,26.2,23.36,WSW,255,3.6,6.3,37,0.00,,---,0.00,VWS V14.00,2013-04-23 07:05:00,
2013-04-23 00:10:00,51.4,26.0,23.36,SW,234,5.4,5.8,37,0.00,,---,0.00,VWS V14.00,2013-04-23 07:10:00,
2013-04-23 00:15:00,51.4,26.0,23.36,SSW,208,6.3,6.3,37,0.00,,---,0.00,VWS V14.00,2013-04-23 07:15:00,
2013-04-23 00:20:00,51.4,26.0,23.36,WSW,248,3.6,7.2,37,0.00,,---,0.00,VWS V14.00,2013-04-23 07:20:00,
2013-04-23 00:25:00,51.3,25.9,23.36,WNW,299,6.7,7.2,37,0.00,,---,0.00,VWS V14.00,2013-04-23 07:25:00,
2013-04-23 00:30:00,51.1,25.7,23.36,SW,219,2.7,4.9,37,0.00,,---,0.00,VWS V14.00,2013-04-23 07:30:00,
2013-04-23 00:35:00,51.1,25.7,23.36,WSW,243,6.3,7.6,37,0.00,,---,0.00,VWS V14.00,2013-04-23 07:35:00,
2013-04-23 00:40:00,51.1,25.7,23.36,WSW,243,3.6,7.6,37,0.00,,---,0.00,VWS V14.00,2013-04-23 07:40:00,
2013-04-23 00:45:00,51.1,25.7,23.36,SW,235,7.6,7.6,37,0.00,,---,0.00,VWS V14.00,2013-04-23 07:45:00,
2013-04-23 00:50:00,51.1,25.7,23.36,WNW,294,4.9,4.9,37,0.00,,---,0.00,VWS V14.00,2013-04-23 07:50:00,
2013-04-23 00:55:00,50.9,25.6,23.36,WNW,283,2.7,3.6,37,0.00,,---,0.00,VWS V14.00,2013-04-23 07:55:00,
2013-04-23 01:00:00,50.7,25.4,23.36,WSW,256,7.6,7.6,37,0.00,,---,0.00,VWS V14.00,2013-04-23 08:00:00,
2013-04-23 01:05:00,50.5,25.2,23.36,West,268,6.3,6.3,37,0.00,,---,0.00,VWS V14.00,2013-04-23 08:05:00,
2013-04-23 01:10:00,50.4,25.1,23.36,West,273,4.0,4.0,37,0.00,,---,0.00,VWS V14.00,2013-04-23 08:10:00,
2013-04-23 01:15:00,50.2,24.9,23.36,West,265,3.1,3.6,37,0.00,,---,0.00,VWS V14.00,2013-04-23 08:15:00,
2013-04-23 01:20:00,49.8,24.6,23.36,WSW,249,3.1,4.0,37,0.00,,---,0.00,VWS V14.00,2013-04-23 08:20:00,
2013-04-23 01:25:00,49.6,24.5,23.36,West,261,2.7,3.1,37,0.00,,---,0.00,VWS V14.00,2013-04-23 08:25:00,
2013-04-23 01:30:00,49.5,24.3,23.36,SW,233,2.7,3.6,37,0.00,,---,0.00,VWS V14.00,2013-04-23 08:30:00,
2013-04-23 01:35:00,49.1,24.0,23.36,WSW,258,0.0,2.2,37,0.00,,---,0.00,VWS V14.00,2013-04-23 08:35:00,
2013-04-23 01:40:00,48.9,23.8,23.36,WSW,243,0.0,0.0,37,0.00,,---,0.00,VWS V14.00,2013-04-23 08:40:00,
2013-04-23 01:45:00,48.6,23.5,23.36,WSW,248,0.0,0.0,37,0.00,,---,0.00,VWS V14.00,2013-04-23 08:45:00,
2013-04-23 01:50:00,48.0,23.0,23.36,WSW,246,0.0,0.0,37,0.00,,---,0.00,VWS V14.00,2013-04-23 08:50:00,
2013-04-23 01:55:00,47.5,22.5,23.36,SW,218,2.7,3.1,37,0.00,,---,0.00,VWS V14.00,2013-04-23 08:55:00,
2013-04-23 02:00:00,47.3,22.4,23.33,SW,228,3.1,3.1,37,0.00,,---,0.00,VWS V14.00,2013-04-23 09:00:00,
2013-04-23 02:05:00,46.9,22.0,23.33,SW,228,0.0,0.0,37,0.00,,---,0.00,VWS V14.00,2013-04-23 09:05:00,
2013-04-23 02:10:00,46.4,21.6,23.33,SW,228,0.0,0.0,37,0.00,,---,0.00,VWS V14.00,2013-04-23 09:10:00,
2013-04-23 02:16:00,46.0,21.9,23.33,West,264,0.0,0.0,38,0.00,,---,0.00,VWS V14.00,2013-04-23 09:16:00,
2013-04-23 02:21:00,45.5,21.4,23.33,West,264,0.0,0.0,38,0.00,,---,0.00,VWS V14.00,2013-04-23 09:21:00,
2013-04-23 02:26:00,45.1,21.1,23.33,West,264,0.0,0.0,38,0.00,,---,0.00,VWS V14.00,2013-04-23 09:26:00,
2013-04-23 02:31:00,44.6,20.6,23.33,WNW,287,0.0,0.0,38,0.00,,---,0.00,VWS V14.00,2013-04-23 09:31:00,
2013-04-23 02:36:00,44.2,20.3,23.33,WNW,298,0.0,0.0,38,0.00,,---,0.00,VWS V14.00,2013-04-23 09:36:00,
2013-04-23 02:41:00,43.9,19.9,23.33,WNW,301,0.0,0.0,38,0.00,,---,0.00,VWS V14.00,2013-04-23 09:41:00,
2013-04-23 02:46:00,43.3,19.5,23.33,WNW,301,0.0,0.0,38,0.00,,---,0.00,VWS V14.00,2013-04-23 09:46:00,
2013-04-23 02:51:00,42.8,19.0,23.33,WNW,301,0.0,0.0,38,0.00,,---,0.00,VWS V14.00,2013-04-23 09:51:00,
2013-04-23 02:56:00,42.3,19.1,23.33,WNW,301,0.0,0.0,39,0.00,,---,0.00,VWS V14.00,2013-04-23 09:56:00,
2013-04-23 03:01:00,41.7,18.6,23.36,WNW,301,0.0,0.0,39,0.00,,---,0.00,VWS V14.00,2013-04-23 10:01:00,
2013-04-23 03:06:00,41.4,18.3,23.36,WNW,301,0.0,0.0,39,0.00,,---,0.00,VWS V14.00,2013-04-23 10:06:00,
2013-04-23 03:11:00,40.8,17.8,23.36,WNW,301,0.0,0.0,39,0.00,,---,0.00,VWS V14.00,2013-04-23 10:11:00,
2013-04-23 03:16:00,40.5,17.5,23.36,WNW,301,0.0,0.0,39,0.00,,---,0.00,VWS V14.00,2013-04-23 10:16:00,
2013-04-23 03:21:00,39.9,17.0,23.36,WNW,301,0.0,0.0,39,0.00,,---,0.00,VWS V14.00,2013-04-23 10:21:00,
2013-04-23 03:26:00,39.6,16.7,23.36,WNW,301,0.0,0.0,39,0.00,,---,0.00,VWS V14.00,2013-04-23 10:26:00,
2013-04-23 03:31:00,39.2,16.3,23.36,WNW,301,0.0,0.0,39,0.00,,---,0.00,VWS V14.00,2013-04-23 10:31:00,
2013-04-23 03:36:00,38.8,16.0,23.36,WNW,301,0.0,0.0,39,0.00,,---,0.00,VWS V14.00,2013-04-23 10:36:00,
2013-04-23 03:41:00,38.5,15.7,23.36,WNW,301,0.0,0.0,39,0.00,,---,0.00,VWS V14.00,2013-04-23 10:41:00,
2013-04-23 03:46:00,38.3,15.5,23.36,WNW,301,0.0,0.0,39,0.00,,---,0.00,VWS V14.00,2013-04-23 10:46:00,
2013-04-23 03:51:00,37.9,15.2,23.36,WNW,301,0.0,0.0,39,0.00,,---,0.00,VWS V14.00,2013-04-23 10:51:00,
2013-04-23 03:56:00,37.6,14.9,23.36,WNW,301,0.0,0.0,39,0.00,,---,0.00,VWS V14.00,2013-04-23 10:56:00,
2013-04-23 04:01:00,37.4,14.7,23.36,WNW,301,0.0,0.0,39,0.00,,---,0.00,VWS V14.00,2013-04-23 11:01:00,
2013-04-23 04:06:00,37.2,15.1,23.36,WNW,301,0.0,0.0,40,0.00,,---,0.00,VWS V14.00,2013-04-23 11:06:00,
2013-04-23 04:11:00,37.0,15.0,23.36,WNW,301,0.0,0.0,40,0.00,,---,0.00,VWS V14.00,2013-04-23 11:11:00,
2013-04-23 04:16:00,36.9,14.8,23.36,WNW,301,0.0,0.0,40,0.00,,---,0.00,VWS V14.00,2013-04-23 11:16:00,
2013-04-23 04:21:00,36.7,14.6,23.36,WNW,301,0.0,0.0,40,0.00,,---,0.00,VWS V14.00,2013-04-23 11:21:00,
2013-04-23 04:26:00,36.5,14.5,23.36,WNW,301,0.0,0.0,40,0.00,,---,0.00,VWS V14.00,2013-04-23 11:26:00,
2013-04-23 04:32:00,36.3,14.3,23.36,WNW,301,0.0,0.0,40,0.00,,---,0.00,VWS V14.00,2013-04-23 11:32:00,
2013-04-23 04:37:00,36.1,14.2,23.36,WNW,301,0.0,0.0,40,0.00,,---,0.00,VWS V14.00,2013-04-23 11:37:00,
2013-04-23 04:42:00,36.1,14.2,23.36,WNW,301,0.0,0.0,40,0.00,,---,0.00,VWS V14.00,2013-04-23 11:42:00,
2013-04-23 04:47:00,36.0,14.0,23.36,WNW,301,0.0,0.0,40,0.00,,---,0.00,VWS V14.00,2013-04-23 11:47:00,
2013-04-23 04:52:00,35.8,13.8,23.36,WNW,301,0.0,0.0,40,0.00,,---,0.00,VWS V14.00,2013-04-23 11:52:00,
2013-04-23 04:57:00,35.6,13.7,23.36,WNW,301,0.0,0.0,40,0.00,,---,0.00,VWS V14.00,2013-04-23 11:57:00,
2013-04-23 05:02:00,35.6,13.7,23.39,WNW,301,0.0,0.0,40,0.00,,---,0.00,VWS V14.00,2013-04-23 12:02:00,
2013-04-23 05:07:00,35.4,13.5,23.39,WNW,301,0.0,0.0,40,0.00,,---,0.00,VWS V14.00,2013-04-23 12:07:00,
2013-04-23 05:12:00,35.4,13.5,23.39,WNW,301,0.0,0.0,40,0.00,,---,0.00,VWS V14.00,2013-04-23 12:12:00,
2013-04-23 05:17:00,35.2,13.4,23.39,WNW,301,0.0,0.0,40,0.00,,---,0.00,VWS V14.00,2013-04-23 12:17:00,
2013-04-23 05:22:00,35.1,13.2,23.39,WNW,301,0.0,0.0,40,0.00,,---,0.00,VWS V14.00,2013-04-23 12:22:00,
2013-04-23 05:27:00,35.1,13.2,23.39,WNW,301,0.0,0.0,40,0.00,,---,0.00,VWS V14.00,2013-04-23 12:27:00,
2013-04-23 05:32:00,34.9,13.0,23.39,WNW,301,0.0,0.0,40,0.00,,---,0.00,VWS V14.00,2013-04-23 12:32:00,
2013-04-23 05:37:00,34.7,12.9,23.39,WNW,301,0.0,0.0,40,0.00,,---,0.00,VWS V14.00,2013-04-23 12:37:00,
2013-04-23 05:42:00,34.5,12.7,23.39,WNW,301,0.0,0.0,40,0.00,,---,0.00,VWS V14.00,2013-04-23 12:42:00,
2013-04-23 05:47:00,34.3,12.5,23.39,WNW,301,0.0,0.0,40,0.00,,---,0.00,VWS V14.00,2013-04-23 12:47:00,
2013-04-23 05:52:00,34.3,12.5,23.39,WNW,301,0.0,0.0,40,0.00,,---,0.00,VWS V14.00,2013-04-23 12:52:00,
2013-04-23 05:57:00,34.2,12.4,23.39,WNW,301,0.0,0.0,40,0.00,,---,0.00,VWS V14.00,2013-04-23 12:57:00,
2013-04-23 06:02:00,34.0,12.2,23.39,WNW,301,0.0,0.0,40,0.00,,---,0.00,VWS V14.00,2013-04-23 13:02:00,
2013-04-23 06:07:00,34.0,12.2,23.39,WNW,301,0.0,0.0,40,0.00,,---,0.00,VWS V14.00,2013-04-23 13:07:00,
2013-04-23 06:12:00,34.0,12.2,23.39,WNW,301,0.0,0.0,40,0.00,,---,0.00,VWS V14.00,2013-04-23 13:12:00,
2013-04-23 06:17:00,34.2,12.4,23.39,WNW,301,0.0,0.0,40,0.00,,---,0.00,VWS V14.00,2013-04-23 13:17:00,
2013-04-23 06:22:00,34.3,12.5,23.39,WNW,301,0.0,0.0,40,0.00,,---,0.00,VWS V14.00,2013-04-23 13:22:00,
2013-04-23 06:27:00,34.7,12.9,23.39,WNW,301,0.0,0.0,40,0.00,,---,0.00,VWS V14.00,2013-04-23 13:27:00,
2013-04-23 06:32:00,35.1,13.2,23.39,WNW,301,0.0,0.0,40,0.00,,---,0.00,VWS V14.00,2013-04-23 13:32:00,
2013-04-23 06:38:00,35.4,13.5,23.39,WNW,301,0.0,0.0,40,0.00,,---,0.00,VWS V14.00,2013-04-23 13:38:00,
2013-04-23 06:43:00,36.1,14.2,23.39,East,97,3.1,3.1,40,0.00,,---,0.00,VWS V14.00,2013-04-23 13:43:00,
2013-04-23 06:48:00,36.9,14.8,23.39,East,97,2.2,3.6,40,0.00,,---,0.00,VWS V14.00,2013-04-23 13:48:00,
2013-04-23 06:53:00,37.8,15.0,23.39,SE,135,2.7,3.1,39,0.00,,---,0.00,VWS V14.00,2013-04-23 13:53:00,
2013-04-23 06:58:00,39.2,16.3,23.39,ESE,110,3.6,5.8,39,0.00,,---,0.00,VWS V14.00,2013-04-23 13:58:00,
2013-04-23 07:03:00,40.3,17.3,23.39,ESE,116,3.1,3.6,39,0.00,,---,0.00,VWS V14.00,2013-04-23 14:03:00,
2013-04-23 07:08:00,41.4,18.3,23.39,SE,138,3.1,3.6,39,0.00,,---,0.00,VWS V14.00,2013-04-23 14:08:00,
2013-04-23 07:13:00,42.3,19.1,23.42,SE,140,0.0,3.1,39,0.00,,---,0.00,VWS V14.00,2013-04-23 14:13:00,
2013-04-23 07:18:00,43.2,19.3,23.42,East,101,4.0,4.0,38,0.00,,---,0.00,VWS V14.00,2013-04-23 14:18:00,
2013-04-23 07:23:00,44.1,20.1,23.42,East,93,0.0,0.0,38,0.00,,---,0.00,VWS V14.00,2013-04-23 14:23:00,
2013-04-23 07:28:00,44.8,20.7,23.42,ENE,78,2.7,3.1,38,0.00,,---,0.00,VWS V14.00,2013-04-23 14:28:00,
2013-04-23 07:33:00,45.5,21.4,23.42,SSE,154,4.0,4.0,38,0.00,,---,0.00,VWS V14.00,2013-04-23 14:33:00,
2013-04-23 07:38:00,46.0,21.9,23.42,ESE,105,3.6,3.6,38,0.00,,---,0.00,VWS V14.00,2013-04-23 14:38:00,
2013-04-23 07:43:00,46.8,21.9,23.42,SE,140,2.7,3.1,37,0.00,,---,0.00,VWS V14.00,2013-04-23 14:43:00,
2013-04-23 07:48:00,47.3,22.4,23.42,ESE,112,0.0,3.1,37,0.00,,---,0.00,VWS V14.00,2013-04-23 14:48:00,
2013-04-23 07:53:00,47.7,22.7,23.42,ESE,103,3.1,3.1,37,0.00,,---,0.00,VWS V14.00,2013-04-23 14:53:00,
2013-04-23 07:58:00,48.0,23.0,23.42,ESE,121,3.1,3.6,37,0.00,,---,0.00,VWS V14.00,2013-04-23 14:58:00,
2013-04-23 08:03:00,48.2,23.2,23.42,ENE,77,3.1,4.9,37,0.00,,---,0.00,VWS V14.00,2013-04-23 15:03:00,
2013-04-23 08:08:00,48.6,23.5,23.42,ESE,111,3.1,5.4,37,0.00,,---,0.00,VWS V14.00,2013-04-23 15:08:00,
2013-04-23 08:13:00,49.1,24.0,23.42,ESE,115,3.6,4.0,37,0.00,,---,0.00,VWS V14.00,2013-04-23 15:13:00,
2013-04-23 08:18:00,49.1,24.0,23.42,ENE,69,3.6,5.4,37,0.00,,---,0.00,VWS V14.00,2013-04-23 15:18:00,
2013-04-23 08:23:00,48.7,23.6,23.42,NE,56,3.6,3.6,37,0.00,,---,0.00,VWS V14.00,2013-04-23 15:23:00,
2013-04-23 08:29:00,48.7,23.6,23.42,ESE,103,3.6,4.0,37,0.00,,---,0.00,VWS V14.00,2013-04-23 15:29:00,
2013-04-23 08:34:00,49.6,24.5,23.42,ENE,72,2.7,5.4,37,0.00,,---,0.00,VWS V14.00,2013-04-23 15:34:00,
2013-04-23 08:39:00,50.4,25.1,23.42,North,357,3.6,6.3,37,0.00,,---,0.00,VWS V14.00,2013-04-23 15:39:00,
2013-04-23 08:44:00,50.7,25.4,23.42,East,86,4.0,5.8,37,0.00,,---,0.00,VWS V14.00,2013-04-23 15:44:00,
2013-04-23 08:49:00,50.9,25.6,23.42,East,97,5.4,6.3,37,0.00,,---,0.00,VWS V14.00,2013-04-23 15:49:00,
2013-04-23 08:54:00,51.3,25.9,23.42,East,91,4.0,4.0,37,0.00,,---,0.00,VWS V14.00,2013-04-23 15:54:00,
2013-04-23 08:59:00,51.4,26.0,23.42,East,97,4.0,5.4,37,0.00,,---,0.00,VWS V14.00,2013-04-23 15:59:00,
2013-04-23 09:04:00,51.8,25.7,23.42,ENE,78,6.3,6.3,36,0.00,,---,0.00,VWS V14.00,2013-04-23 16:04:00,
2013-04-23 09:09:00,52.2,26.0,23.42,East,86,3.6,4.0,36,0.00,,---,0.00,VWS V14.00,2013-04-23 16:09:00,
2013-04-23 09:14:00,52.9,26.7,23.42,East,83,6.3,6.3,36,0.00,,---,0.00,VWS V14.00,2013-04-23 16:14:00,
2013-04-23 09:19:00,53.2,27.0,23.42,SE,127,3.6,3.6,36,0.00,,---,0.00,VWS V14.00,2013-04-23 16:19:00,
2013-04-23 09:24:00,54.1,27.8,23.42,East,99,3.1,4.9,36,0.00,,---,0.00,VWS V14.00,2013-04-23 16:24:00,
2013-04-23 09:29:00,54.5,28.1,23.42,ENE,58,2.7,3.6,36,0.00,,---,0.00,VWS V14.00,2013-04-23 16:29:00,
2013-04-23 09:34:00,54.5,28.1,23.42,East,84,3.1,3.1,36,0.00,,---,0.00,VWS V14.00,2013-04-23 16:34:00,
2013-04-23 09:39:00,54.9,28.4,23.42,ENE,59,2.2,3.1,36,0.00,,---,0.00,VWS V14.00,2013-04-23 16:39:00,
2013-04-23 09:44:00,55.9,28.7,23.42,ENE,76,3.1,4.0,35,0.00,,---,0.00,VWS V14.00,2013-04-23 16:44:00,
2013-04-23 09:49:00,56.1,28.9,23.42,SSE,152,4.0,4.0,35,0.00,,---,0.00,VWS V14.00,2013-04-23 16:49:00,
2013-04-23 09:54:00,56.7,29.3,23.42,South,177,3.6,4.0,35,0.00,,---,0.00,VWS V14.00,2013-04-23 16:54:00,
2013-04-23 09:59:00,57.2,29.8,23.42,ESE,118,4.0,5.4,35,0.00,,---,0.00,VWS V14.00,2013-04-23 16:59:00,
2013-04-23 10:04:00,57.4,30.0,23.42,SSE,154,4.0,4.0,35,0.00,,---,0.00,VWS V14.00,2013-04-23 17:04:00,
2013-04-23 10:09:00,56.7,29.3,23.42,NNE,19,4.0,5.4,35,0.00,,---,0.00,VWS V14.00,2013-04-23 17:09:00,
2013-04-23 10:14:00,56.1,28.9,23.45,North,11,5.4,5.8,35,0.00,,---,0.00,VWS V14.00,2013-04-23 17:14:00,
2013-04-23 10:19:00,55.8,28.5,23.45,NW,307,2.2,3.1,35,0.00,,---,0.00,VWS V14.00,2013-04-23 17:19:00,
2013-04-23 10:24:00,56.7,29.3,23.45,ESE,105,2.2,4.9,35,0.00,,---,0.00,VWS V14.00,2013-04-23 17:24:00,
2013-04-23 10:29:00,57.4,30.0,23.45,NW,308,0.0,0.0,35,0.00,,---,0.00,VWS V14.00,2013-04-23 17:29:00,
2013-04-23 10:34:00,58.1,30.6,23.45,South,170,2.7,3.6,35,0.00,,---,0.00,VWS V14.00,2013-04-23 17:34:00,
2013-04-23 10:40:00,58.8,31.2,23.45,SE,124,3.6,3.6,35,0.00,,---,0.00,VWS V14.00,2013-04-23 17:40:00,
2013-04-23 10:45:00,59.2,31.6,23.45,East,97,5.4,5.8,35,0.00,,---,0.00,VWS V14.00,2013-04-23 17:45:00,
2013-04-23 10:50:00,59.5,31.9,23.45,ENE,70,4.5,5.4,35,0.00,,---,0.00,VWS V14.00,2013-04-23 17:50:00,
2013-04-23 10:55:00,59.0,31.4,23.45,NNE,18,2.7,5.4,35,0.00,,---,0.00,VWS V14.00,2013-04-23 17:55:00,
2013-04-23 11:00:00,59.2,31.6,23.42,East,91,3.6,5.4,35,0.00,,---,0.00,VWS V14.00,2013-04-23 18:00:00,
2013-04-23 11:05:00,59.2,31.6,23.42,SW,225,6.3,6.3,35,0.00,,---,0.00,VWS V14.00,2013-04-23 18:05:00,
2013-04-23 11:10:00,59.5,31.9,23.42,NNW,335,3.6,11.0,35,0.00,,---,0.00,VWS V14.00,2013-04-23 18:10:00,
2013-04-23 11:15:00,59.9,32.2,23.45,North,0,7.6,7.6,35,0.00,,---,0.00,VWS V14.00,2013-04-23 18:15:00,
2013-04-23 11:20:00,60.8,32.3,23.45,ESE,108,2.2,2.7,34,0.00,,---,0.00,VWS V14.00,2013-04-23 18:20:00,
2013-04-23 11:25:00,61.9,33.2,23.45,WNW,301,5.8,5.8,34,0.00,,---,0.00,VWS V14.00,2013-04-23 18:25:00,
2013-04-23 11:30:00,63.5,34.7,23.42,NW,326,8.1,8.1,34,0.00,,---,0.00,VWS V14.00,2013-04-23 18:30:00,
2013-04-23 11:35:00,64.9,35.2,23.42,WNW,291,8.7,15.4,33,0.00,,---,0.00,VWS V14.00,2013-04-23 18:35:00,
2013-04-23 11:40:00,65.1,35.3,23.42,NW,315,6.3,6.3,33,0.00,,---,0.00,VWS V14.00,2013-04-23 18:40:00,
2013-04-23 11:45:00,64.2,35.3,23.42,NW,314,13.2,13.2,34,0.00,,---,0.00,VWS V14.00,2013-04-23 18:45:00,
2013-04-23 11:50:00,63.5,34.7,23.42,West,267,6.3,10.5,34,0.00,,---,0.00,VWS V14.00,2013-04-23 18:50:00,
2013-04-23 11:55:00,63.5,34.7,23.42,North,357,4.9,4.9,34,0.00,,---,0.00,VWS V14.00,2013-04-23 18:55:00,
2013-04-23 12:00:00,63.0,34.2,23.42,North,357,6.3,9.6,34,0.00,,---,0.00,VWS V14.00,2013-04-23 19:00:00,
2013-04-23 12:05:00,63.1,34.3,23.42,North,357,5.4,10.1,34,0.00,,---,0.00,VWS V14.00,2013-04-23 19:05:00,
2013-04-23 12:10:00,63.9,35.0,23.42,WNW,294,3.1,8.7,34,0.00,,---,0.00,VWS V14.00,2013-04-23 19:10:00,
2013-04-23 12:15:00,64.2,35.3,23.42,NW,325,8.1,8.7,34,0.00,,---,0.00,VWS V14.00,2013-04-23 19:15:00,
2013-04-23 12:20:00,64.9,35.2,23.42,NNW,340,7.6,7.6,33,0.00,,---,0.00,VWS V14.00,2013-04-23 19:20:00,
2013-04-23 12:25:00,64.8,35.0,23.42,NNE,12,5.8,8.3,33,0.00,,---,0.00,VWS V14.00,2013-04-23 19:25:00,
2013-04-23 12:31:00,64.8,35.0,23.42,NW,317,4.9,8.3,33,0.00,,---,0.00,VWS V14.00,2013-04-23 19:31:00,
2013-04-23 12:36:00,66.0,36.1,23.42,NW,326,5.4,14.5,33,0.00,,---,0.00,VWS V14.00,2013-04-23 19:36:00,
2013-04-23 12:41:00,65.3,35.5,23.42,ESE,105,2.2,10.1,33,0.00,,---,0.00,VWS V14.00,2013-04-23 19:41:00,
2013-04-23 12:46:00,65.1,35.3,23.42,North,7,10.1,10.1,33,0.00,,---,0.00,VWS V14.00,2013-04-23 19:46:00,
2013-04-23 12:51:00,64.8,35.0,23.42,North,349,4.0,4.9,33,0.00,,---,0.00,VWS V14.00,2013-04-23 19:51:00,
2013-04-23 12:56:00,65.8,36.0,23.42,WSW,255,11.0,11.0,33,0.00,,---,0.00,VWS V14.00,2013-04-23 19:56:00,
2013-04-23 13:01:00,66.6,36.6,23.42,WNW,288,3.1,7.6,33,0.00,,---,0.00,VWS V14.00,2013-04-23 20:01:00,
2013-04-23 13:06:00,66.7,36.8,23.42,WSW,256,3.6,11.0,33,0.00,,---,0.00,VWS V14.00,2013-04-23 20:06:00,
2013-04-23 13:11:00,66.7,36.8,23.42,SW,236,6.3,7.6,33,0.00,,---,0.00,VWS V14.00,2013-04-23 20:11:00,
2013-04-23 13:16:00,66.6,36.6,23.42,West,272,10.5,10.5,33,0.00,,---,0.00,VWS V14.00,2013-04-23 20:16:00,
2013-04-23 13:21:00,66.2,36.3,23.42,ESE,120,2.2,2.7,33,0.00,,---,0.00,VWS V14.00,2013-04-23 20:21:00,
2013-04-23 13:26:00,66.2,36.3,23.42,NW,318,4.0,7.6,33,0.00,,---,0.00,VWS V14.00,2013-04-23 20:26:00,
2013-04-23 13:31:00,66.0,36.1,23.42,NW,312,5.8,5.8,33,0.00,,---,0.00,VWS V14.00,2013-04-23 20:31:00,
2013-04-23 13:36:00,65.8,36.0,23.42,NW,304,8.7,8.7,33,0.00,,---,0.00,VWS V14.00,2013-04-23 20:36:00,
2013-04-23 13:41:00,65.8,36.0,23.42,WNW,302,5.8,5.8,33,0.00,,---,0.00,VWS V14.00,2013-04-23 20:41:00,
2013-04-23 13:46:00,65.5,35.6,23.42,SW,222,8.1,8.1,33,0.00,,---,0.00,VWS V14.00,2013-04-23 20:46:00,
2013-04-23 13:51:00,65.5,35.6,23.42,WSW,244,5.4,5.4,33,0.00,,---,0.00,VWS V14.00,2013-04-23 20:51:00,
2013-04-23 13:56:00,65.7,35.8,23.42,NNW,345,5.8,5.8,33,0.00,,---,0.00,VWS V14.00,2013-04-23 20:56:00,
2013-04-23 14:01:00,65.5,35.6,23.42,NNW,334,4.0,6.3,33,0.00,,---,0.00,VWS V14.00,2013-04-23 21:01:00,
2013-04-23 14:06:00,65.5,35.6,23.42,NW,320,4.9,5.4,33,0.00,,---,0.00,VWS V14.00,2013-04-23 21:06:00,
2013-04-23 14:11:00,64.9,35.2,23.42,NW,318,0.0,8.1,33,0.00,,---,0.00,VWS V14.00,2013-04-23 21:11:00,
2013-04-23 14:16:00,64.6,34.8,23.42,North,350,3.6,3.6,33,0.00,,---,0.00,VWS V14.00,2013-04-23 21:16:00,
2013-04-23 14:21:00,65.5,35.6,23.42,SW,231,5.8,7.6,33,0.00,,---,0.00,VWS V14.00,2013-04-23 21:21:00,
2013-04-23 14:26:00,66.7,36.8,23.42,SW,218,2.7,3.1,33,0.00,,---,0.00,VWS V14.00,2013-04-23 21:26:00,
2013-04-23 14:31:00,67.8,37.7,23.42,WNW,298,5.4,6.3,33,0.00,,---,0.00,VWS V14.00,2013-04-23 21:31:00,
2013-04-23 14:36:00,68.4,38.2,23.42,NW,304,3.6,5.8,33,0.00,,---,0.00,VWS V14.00,2013-04-23 21:36:00,
2013-04-23 14:41:00,68.4,38.2,23.42,West,273,5.4,5.4,33,0.00,,---,0.00,VWS V14.00,2013-04-23 21:41:00,
2013-04-23 14:47:00,68.5,38.3,23.39,West,269,6.3,10.1,33,0.00,,---,0.00,VWS V14.00,2013-04-23 21:47:00,
2013-04-23 14:52:00,68.2,38.0,23.39,NNE,13,2.7,6.3,33,0.00,,---,0.00,VWS V14.00,2013-04-23 21:52:00,
2013-04-23 14:57:00,67.6,37.5,23.39,NW,306,2.2,2.2,33,0.00,,---,0.00,VWS V14.00,2013-04-23 21:57:00,
2013-04-23 15:02:00,68.5,38.3,23.39,SSW,197,4.9,5.8,33,0.00,,---,0.00,VWS V14.00,2013-04-23 22:02:00,
2013-04-23 15:07:00,68.9,38.6,23.39,NNW,329,3.6,5.8,33,0.00,,---,0.00,VWS V14.00,2013-04-23 22:07:00,
2013-04-23 15:12:00,69.4,39.1,23.39,WSW,238,5.4,5.4,33,0.00,,---,0.00,VWS V14.00,2013-04-23 22:12:00,
2013-04-23 15:17:00,70.2,39.0,23.39,WSW,255,5.8,8.7,32,0.00,,---,0.00,VWS V14.00,2013-04-23 22:17:00,
2013-04-23 15:22:00,70.2,39.0,23.39,North,0,5.4,7.6,32,0.00,,---,0.00,VWS V14.00,2013-04-23 22:22:00,
2013-04-23 15:27:00,70.2,39.0,23.39,SW,226,5.4,5.4,32,0.00,,---,0.00,VWS V14.00,2013-04-23 22:27:00,
2013-04-23 15:32:00,69.1,38.8,23.39,North,353,4.0,5.4,33,0.00,,---,0.00,VWS V14.00,2013-04-23 22:32:00,
2013-04-23 15:37:00,67.8,37.7,23.39,NNW,340,5.8,8.1,33,0.00,,---,0.00,VWS V14.00,2013-04-23 22:37:00,
2013-04-23 15:42:00,67.5,37.4,23.39,WNW,296,2.7,2.7,33,0.00,,---,0.00,VWS V14.00,2013-04-23 22:42:00,
2013-04-23 15:47:00,68.0,37.8,23.39,WNW,295,6.3,6.3,33,0.00,,---,0.00,VWS V14.00,2013-04-23 22:47:00,
2013-04-23 15:52:00,68.7,38.5,23.39,SE,140,5.4,5.4,33,0.00,,---,0.00,VWS V14.00,2013-04-23 22:52:00,
2013-04-23 15:57:00,68.5,38.3,23.39,SSE,162,3.1,4.0,33,0.00,,---,0.00,VWS V14.00,2013-04-23 22:57:00,
2013-04-23 16:02:00,68.5,38.3,23.39,NW,324,3.1,3.6,33,0.00,,---,0.00,VWS V14.00,2013-04-23 23:02:00,
2013-04-23 16:07:00,68.0,37.8,23.39,North,357,7.6,8.7,33,0.00,,---,0.00,VWS V14.00,2013-04-23 23:07:00,
2013-04-23 16:12:00,66.9,36.9,23.39,North,1,4.0,4.9,33,0.00,,---,0.00,VWS V14.00,2013-04-23 23:12:00,
2013-04-23 16:17:00,66.9,36.9,23.39,South,171,3.1,7.6,33,0.00,,---,0.00,VWS V14.00,2013-04-23 23:17:00,
2013-04-23 16:22:00,66.6,36.6,23.39,ESE,115,2.7,3.6,33,0.00,,---,0.00,VWS V14.00,2013-04-23 23:22:00,
2013-04-23 16:27:00,65.1,35.3,23.39,East,101,3.6,5.8,33,0.00,,---,0.00,VWS V14.00,2013-04-23 23:27:00,
2013-04-23 16:32:00,64.4,34.7,23.39,ESE,120,5.4,5.4,33,0.00,,---,0.00,VWS V14.00,2013-04-23 23:32:00,
2013-04-23 16:37:00,64.2,35.3,23.39,East,87,7.6,8.7,34,0.00,,---,0.00,VWS V14.00,2013-04-23 23:37:00,
2013-04-23 16:42:00,63.5,34.7,23.39,East,94,3.6,3.6,34,0.00,,---,0.00,VWS V14.00,2013-04-23 23:42:00,
2013-04-23 16:47:00,63.3,34.5,23.42,ENE,75,2.7,10.1,34,0.00,,---,0.00,VWS V14.00,2013-04-23 23:47:00,
2013-04-23 16:52:00,63.3,34.5,23.42,SSE,147,4.0,4.0,34,0.00,,---,0.00,VWS V14.00,2013-04-23 23:52:00,
2013-04-23 16:57:00,63.0,34.2,23.42,East,93,5.8,5.8,34,0.00,,---,0.00,VWS V14.00,2013-04-23 23:57:00,
2013-04-23 17:02:00,62.4,33.7,23.42,ESE,102,5.8,7.6,34,0.00,,---,0.00,VWS V14.00,2013-04-24 00:02:00,
2013-04-23 17:08:00,61.9,33.2,23.42,ESE,116,4.9,6.3,34,0.00,,---,0.00,VWS V14.00,2013-04-24 00:08:00,
2013-04-23 17:13:00,61.9,33.2,23.42,SE,131,3.6,6.3,34,0.00,,---,0.00,VWS V14.00,2013-04-24 00:13:00,
2013-04-23 17:18:00,61.9,33.2,23.42,SE,126,4.9,5.4,34,0.00,,---,0.00,VWS V14.00,2013-04-24 00:18:00,
2013-04-23 17:23:00,61.7,33.1,23.42,ESE,106,4.9,6.3,34,0.00,,---,0.00,VWS V14.00,2013-04-24 00:23:00,
2013-04-23 17:28:00,61.3,32.8,23.42,SSE,152,8.3,8.3,34,0.00,,---,0.00,VWS V14.00,2013-04-24 00:28:00,
2013-04-23 17:33:00,60.6,32.8,23.42,ESE,119,4.9,5.4,35,0.00,,---,0.00,VWS V14.00,2013-04-24 00:33:00,
2013-04-23 17:38:00,60.3,32.5,23.42,East,100,4.0,6.3,35,0.00,,---,0.00,VWS V14.00,2013-04-24 00:38:00,
2013-04-23 17:43:00,59.9,32.2,23.42,SSE,167,5.4,5.4,35,0.00,,---,0.00,VWS V14.00,2013-04-24 00:43:00,
2013-04-23 17:48:00,59.7,32.0,23.42,ENE,71,2.7,5.8,35,0.00,,---,0.00,VWS V14.00,2013-04-24 00:48:00,
2013-04-23 17:53:00,59.4,31.7,23.42,ESE,118,3.1,3.1,35,0.00,,---,0.00,VWS V14.00,2013-04-24 00:53:00,
2013-04-23 17:58:00,58.8,31.2,23.42,East,100,5.4,5.4,35,0.00,,---,0.00,VWS V14.00,2013-04-24 00:58:00,
2013-04-23 18:03:00,57.9,30.5,23.42,South,169,3.6,3.6,35,0.00,,---,0.00,VWS V14.00,2013-04-24 01:03:00,
2013-04-23 18:08:00,57.2,29.8,23.42,NE,51,2.7,5.8,35,0.00,,---,0.00,VWS V14.00,2013-04-24 01:08:00,
2013-04-23 18:13:00,56.7,29.3,23.42,East,100,4.0,4.9,35,0.00,,---,0.00,VWS V14.00,2013-04-24 01:13:00,
2013-04-23 18:18:00,55.9,28.7,23.42,North,9,5.4,5.4,35,0.00,,---,0.00,VWS V14.00,2013-04-24 01:18:00,
2013-04-23 18:23:00,55.2,28.8,23.42,ENE,65,0.0,3.6,36,0.00,,---,0.00,VWS V14.00,2013-04-24 01:23:00,
2013-04-23 18:28:00,54.7,28.3,23.42,East,80,4.9,4.9,36,0.00,,---,0.00,VWS V14.00,2013-04-24 01:28:00,
2013-04-23 18:33:00,54.1,27.8,23.42,ESE,104,3.6,5.8,36,0.00,,---,0.00,VWS V14.00,2013-04-24 01:33:00,
2013-04-23 18:38:00,53.4,27.1,23.42,East,93,3.1,4.9,36,0.00,,---,0.00,VWS V14.00,2013-04-24 01:38:00,
2013-04-23 18:43:00,52.9,26.7,23.42,East,97,4.0,5.8,36,0.00,,---,0.00,VWS V14.00,2013-04-24 01:43:00,
2013-04-23 18:49:00,52.3,26.2,23.42,ENE,78,0.0,0.0,36,0.00,,---,0.00,VWS V14.00,2013-04-24 01:49:00,
2013-04-23 18:54:00,51.8,25.7,23.42,ENE,72,0.0,0.0,36,0.00,,---,0.00,VWS V14.00,2013-04-24 01:54:00,
2013-04-23 18:59:00,51.3,25.9,23.42,East,98,0.0,3.6,37,0.00,,---,0.00,VWS V14.00,2013-04-24 01:59:00,
2013-04-23 19:04:00,50.5,25.2,23.42,East,97,4.0,4.5,37,0.00,,---,0.00,VWS V14.00,2013-04-24 02:04:00,
2013-04-23 19:09:00,50.2,24.9,23.42,SE,127,2.7,2.7,37,0.00,,---,0.00,VWS V14.00,2013-04-24 02:09:00,
2013-04-23 19:14:00,49.5,24.3,23.45,ESE,103,0.0,0.0,37,0.00,,---,0.00,VWS V14.00,2013-04-24 02:14:00,
2013-04-23 19:19:00,48.7,23.6,23.45,ESE,103,0.0,0.0,37,0.00,,---,0.00,VWS V14.00,2013-04-24 02:19:00,
2013-04-23 19:24:00,48.2,23.2,23.45,ESE,103,0.0,0.0,37,0.00,,---,0.00,VWS V14.00,2013-04-24 02:24:00,
2013-04-23 19:29:00,47.5,22.5,23.45,ESE,103,0.0,0.0,37,0.00,,---,0.00,VWS V14.00,2013-04-24 02:29:00,
2013-04-23 19:35:00,46.6,21.7,23.45,ESE,103,0.0,0.0,37,0.00,,---,0.00,VWS V14.00,2013-04-24 02:35:00,
2013-04-23 19:40:00,45.9,21.7,23.45,ESE,103,0.0,0.0,38,0.00,,---,0.00,VWS V14.00,2013-04-24 02:40:00,
2013-04-23 19:46:00,45.1,21.1,23.45,ESE,103,0.0,0.0,38,0.00,,---,0.00,VWS V14.00,2013-04-24 02:46:00,
2013-04-23 19:51:00,44.2,20.3,23.45,ESE,103,0.0,0.0,38,0.00,,---,0.00,VWS V14.00,2013-04-24 02:51:00,
2013-04-23 19:56:00,43.7,19.8,23.45,ESE,103,0.0,0.0,38,0.00,,---,0.00,VWS V14.00,2013-04-24 02:56:00,
2013-04-23 20:01:00,43.0,19.1,23.45,ESE,103,0.0,0.0,38,0.00,,---,0.00,VWS V14.00,2013-04-24 03:01:00,
2013-04-23 20:08:00,42.3,19.1,23.45,ESE,103,0.0,0.0,39,0.00,,---,0.00,VWS V14.00,2013-04-24 03:08:00,
2013-04-23 20:13:00,41.7,18.6,23.45,ESE,103,0.0,0.0,39,0.00,,---,0.00,VWS V14.00,2013-04-24 03:13:00,
2013-04-23 20:18:00,41.0,18.0,23.45,ESE,103,0.0,0.0,39,0.00,,---,0.00,VWS V14.00,2013-04-24 03:18:00,
2013-04-23 20:23:00,40.6,17.6,23.45,ESE,103,0.0,0.0,39,0.00,,---,0.00,VWS V14.00,2013-04-24 03:23:00,
2013-04-23 20:29:00,40.1,17.1,23.45,ESE,103,0.0,0.0,39,0.00,,---,0.00,VWS V14.00,2013-04-24 03:29:00,
2013-04-23 20:35:00,39.6,16.7,23.45,ESE,103,0.0,0.0,39,0.00,,---,0.00,VWS V14.00,2013-04-24 03:35:00,
2013-04-23 20:40:00,39.0,16.2,23.45,ESE,103,0.0,0.0,39,0.00,,---,0.00,VWS V14.00,2013-04-24 03:40:00,
2013-04-23 20:45:00,38.5,15.7,23.45,ESE,103,0.0,0.0,39,0.00,,---,0.00,VWS V14.00,2013-04-24 03:45:00,
2013-04-23 20:50:00,38.1,15.4,23.45,NNE,19,2.7,2.7,39,0.00,,---,0.00,VWS V14.00,2013-04-24 03:50:00,
2013-04-23 20:56:00,37.9,15.2,23.45,North,0,2.2,2.2,39,0.00,,---,0.00,VWS V14.00,2013-04-24 03:56:00,
2013-04-23 21:01:00,37.6,14.9,23.45,North,0,0.0,0.0,39,0.00,,---,0.00,VWS V14.00,2013-04-24 04:01:00,
2013-04-23 21:02:00,37.6,14.9,23.45,North,0,0.0,0.0,39,0.00,,---,0.00,VWS V14.00,2013-04-24 04:02:00,
2013-04-23 21:05:00,37.4,14.7,23.45,North,0,0.0,0.0,39,0.00,,---,0.00,VWS V14.00,2013-04-24 04:05:00,
2013-04-23 21:10:00,37.0,15.0,23.45,North,0,0.0,0.0,40,0.00,,---,0.00,VWS V14.00,2013-04-24 04:10:00,
2013-04-23 21:15:00,36.7,14.6,23.45,North,0,0.0,0.0,40,0.00,,---,0.00,VWS V14.00,2013-04-24 04:15:00,
2013-04-23 21:20:00,36.3,14.3,23.45,North,0,0.0,0.0,40,0.00,,---,0.00,VWS V14.00,2013-04-24 04:20:00,
2013-04-23 21:25:00,36.0,14.0,23.45,North,0,0.0,0.0,40,0.00,,---,0.00,VWS V14.00,2013-04-24 04:25:00,
2013-04-23 21:30:00,35.6,13.7,23.48,North,0,0.0,0.0,40,0.00,,---,0.00,VWS V14.00,2013-04-24 04:30:00,
2013-04-23 21:35:00,35.2,13.4,23.48,North,0,0.0,0.0,40,0.00,,---,0.00,VWS V14.00,2013-04-24 04:35:00,
2013-04-23 21:40:00,34.7,12.9,23.48,North,0,0.0,0.0,40,0.00,,---,0.00,VWS V14.00,2013-04-24 04:40:00,
2013-04-23 21:45:00,34.3,12.5,23.48,North,0,0.0,0.0,40,0.00,,---,0.00,VWS V14.00,2013-04-24 04:45:00,
2013-04-23 21:50:00,34.0,12.2,23.48,North,0,0.0,0.0,40,0.00,,---,0.00,VWS V14.00,2013-04-24 04:50:00,
2013-04-23 21:55:00,33.8,12.1,23.48,North,0,0.0,0.0,40,0.00,,---,0.00,VWS V14.00,2013-04-24 04:55:00,
2013-04-23 22:00:00,33.4,12.3,23.48,North,0,0.0,0.0,41,0.00,,---,0.00,VWS V14.00,2013-04-24 05:00:00,
2013-04-23 22:05:00,33.1,12.0,23.48,North,0,0.0,0.0,41,0.00,,---,0.00,VWS V14.00,2013-04-24 05:05:00,
2013-04-23 22:10:00,32.7,11.6,23.48,North,0,0.0,0.0,41,0.00,,---,0.00,VWS V14.00,2013-04-24 05:10:00,
2013-04-23 22:15:00,32.5,11.5,23.45,North,0,0.0,0.0,41,0.00,,---,0.00,VWS V14.00,2013-04-24 05:15:00,
2013-04-23 22:20:00,32.2,11.1,23.45,North,0,0.0,0.0,41,0.00,,---,0.00,VWS V14.00,2013-04-24 05:20:00,
2013-04-23 22:25:00,31.8,10.8,23.45,North,0,0.0,0.0,41,0.00,,---,0.00,VWS V14.00,2013-04-24 05:25:00,
2013-04-23 22:30:00,31.6,10.6,23.48,North,0,0.0,0.0,41,0.00,,---,0.00,VWS V14.00,2013-04-24 05:30:00,
2013-04-23 22:35:00,31.3,10.3,23.48,North,0,0.0,0.0,41,0.00,,---,0.00,VWS V14.00,2013-04-24 05:35:00,
2013-04-23 22:40:00,30.9,10.0,23.48,North,0,0.0,0.0,41,0.00,,---,0.00,VWS V14.00,2013-04-24 05:40:00,
2013-04-23 22:45:00,30.6,9.7,23.45,North,0,0.0,0.0,41,0.00,,---,0.00,VWS V14.00,2013-04-24 05:45:00,
2013-04-23 22:50:00,30.4,9.5,23.45,North,0,0.0,0.0,41,0.00,,---,0.00,VWS V14.00,2013-04-24 05:50:00,
2013-04-23 22:55:00,30.2,9.4,23.45,North,0,0.0,0.0,41,0.00,,---,0.00,VWS V14.00,2013-04-24 05:55:00,
2013-04-23 23:00:00,30.0,9.2,23.48,North,0,0.0,0.0,41,0.00,,---,0.00,VWS V14.00,2013-04-24 06:00:00,
2013-04-23 23:05:00,29.7,8.9,23.48,North,0,0.0,0.0,41,0.00,,---,0.00,VWS V14.00,2013-04-24 06:05:00,
2013-04-23 23:11:00,29.5,8.7,23.48,North,0,0.0,0.0,41,0.00,,---,0.00,VWS V14.00,2013-04-24 06:11:00,
2013-04-23 23:16:00,29.3,8.5,23.48,North,0,0.0,0.0,41,0.00,,---,0.00,VWS V14.00,2013-04-24 06:16:00,
2013-04-23 23:21:00,29.1,8.4,23.48,North,0,0.0,0.0,41,0.00,,---,0.00,VWS V14.00,2013-04-24 06:21:00,
2013-04-23 23:26:00,28.8,8.0,23.48,North,0,0.0,0.0,41,0.00,,---,0.00,VWS V14.00,2013-04-24 06:26:00,
2013-04-23 23:31:00,28.6,7.9,23.48,North,0,0.0,0.0,41,0.00,,---,0.00,VWS V14.00,2013-04-24 06:31:00,
2013-04-23 23:36:00,28.4,7.7,23.48,North,0,0.0,0.0,41,0.00,,---,0.00,VWS V14.00,2013-04-24 06:36:00,
2013-04-23 23:41:00,28.2,7.6,23.48,North,0,0.0,0.0,41,0.00,,---,0.00,VWS V14.00,2013-04-24 06:41:00,
2013-04-23 23:46:00,28.0,7.4,23.45,North,0,0.0,0.0,41,0.00,,---,0.00,VWS V14.00,2013-04-24 06:46:00,
2013-04-23 23:51:00,27.9,7.2,23.45,North,0,0.0,0.0,41,0.00,,---,0.00,VWS V14.00,2013-04-24 06:51:00,
2013-04-23 23:56:00,27.9,7.2,23.45,North,0,0.0,0.0,41,0.00,,---,0.00,VWS V14.00,2013-04-24 06:56:00,